Location: Unspecified
(33.6682°S, 0.0000°E)
Time: 05:33:29
(UTC+00:00)

Tiros 1 despin weight - Pass Details

Date: 18 June 2019
Orbit: 594 x 642 km, 48.2° (Epoch: 21 July)

Event Time Altitude Azimuth Distance (km) Brightness Sun altitude
Rises 14:07:11 0° 257° (WSW) 2,954 ? 25.5°
Reaches altitude 10° 14:10:14 10° 237° (WSW) 2,052 ? 25.2°
Maximum altitude 14:13:24 17° 195° (SSW) 1,620 ? 24.8°
Drops below altitude 10° 14:16:35 10° 153° (SSE) 2,060 ? 24.5°
Sets 14:19:39 0° 133° (SE) 2,970 ? 24.1°
